RH
67 69 70 68 71 74 74 79 82 86 85 85 83 84 84 83 84 90 88 87 89 91 91 92 91 88 93 92 95 93 93 95 96 98 97 96 96 96 96 95 94 97 97
63 66 67 74 70 74 73 76 79 83 81 81 81 86 87 86 86 88 90 90 89 89 89 90 92 91 97 97 97 97 98 96 95 96 96 99 98 98 98 98 98 97 97
61 62 64 74 75 73 74 77 82 81 79 74 78 83 85 86 86 87 90 89 89 91 91 91 92 89 92 92 92 91 89 94 97 98 99 99 99 98 98 98 98 98 97
54 57 67 73 76 69 76 77 82 79 76 76 77 78 80 82 83 84 85 86 84 85 90 91 92 94 95 94 96 98 98 98 98 99 99 100 99 99 98 99 99 99 99
56 56 66 72 74 67 78 79 77 76 76 75 74 73 73 73 74 86 83 83 85 85 83 82 88 89 91 91 87 96 96 97 97 98 98 98 99 99 99 99 99 99 99
59 57 63 73 74 72 77 78 77 82 77 76 75 76 75 65 88 89 88 79 80 83 84 84 80 78 82 84 82 83 88 95 91 87 92 95 97 98 98 97 96 97 98
61 57 63 78 76 72 76 77 77 80 77 78 79 78 79 76 88 88 86 75 76 76 78 77 63 62 73 72 79 77 77 82 84 84 91 92 94 95 92 96 93 88 92
68 74 71 80 78 75 83 82 82 76 82 79 79 78 78 76 88 86 85 75 73 78 79 74 77 78 85 73 66 66 65 67 74 67 82 84 81 84 89 89 92 91 88
63 66 66 81 84 85 89 88 84 82 84 81 78 81 80 83 87 88 84 74 74 75 74 79 75 79 86 87 70 74 73 65 66 70 71 72 72 69 77 85 89 93 88
83 82 88 83 85 88 90 91 86 84 83 79 79 80 89 84 90 88 82 68 73 68 73 75 81 81 82 82 78 77 82 79 71 69 69 72 71 70 72 80 71 78 81
78 84 91 96 92 96 95 95 89 88 85 83 83 82 82 87 83 86 84 69 73 70 60 63 66 79 78 77 79 78 77 74 67 69 69 69 67 62 67 74 80 69 74
87 93 98 98 99 98 98 98 96 88 87 88 84 81 79 82 90 86 83 81 80 66 64 64 68 69 66 69 62 60 60 66 62 63 60 61 61 64 66 74 79 77 76
91 95 97 97 98 98 98 99 99 98 98 97 98 98 97 82 84 82 81 78 75 61 50 66 66 67 66 58 60 57 67 59 64 59 62 62 64 60 69 72 78 75 75
91 93 93 96 98 98 99 99 98 99 99 99 99 99 99 97 93 83 64 56 64 57 62 57 66 62 63 60 56 61 55 58 62 62 61 58 60 62 63 61 70 77 75
86 86 85 88 93 97 98 99 98 100 98 99 99 98 96 95 83 79 72 65 65 68 69 64 62 57 61 62 59 56 62 63 61 62 61 60 57 60 60 61 60 64 65
80 76 78 81 82 84 87 93 91 93 95 94 92 92 85 88 85 79 74 71 74 74 65 59 60 57 54 55 56 56 58 55 61 61 60 59 59 56 57 62 61 63 62
75 72 67 68 67 69 68 70 75 75 89 88 87 86 87 81 81 79 78 79 68 64 57 53 56 56 54 54 53 52 52 62 67 63 60 58 55 56 51 58 56 58 59
70 76 60 58 56 56 59 57 57 60 60 61 76 67 78 77 79 80 79 72 48 54 48 49 54 54 55 56 54 55 56 64 63 59 60 57 57 57 56 54 55 55 53
58 48 42 37 33 36 36 32 30 41 48 52 53 63 65 73 74 75 75 52 50 47 41 46 51 55 56 56 62 63 63 63 60 63 63 62 59 54 58 48 48 52 50
38 53 39 31 26 28 26 27 30 39 43 43 43 39 41 47 42 44 47 47 42 36 36 42 46 55 55 59 61 65 59 63 62 58 60 60 62 55 52 51 46 49 52
25 27 46 24 23 24 26 29 31 31 31 31 38 40 51 39 35 36 37 40 37 35 41 42 34 41 53 62 61 60 53 52 57 59 57 58 60 52 57 54 50 45 45
26 26 25 25 29 32 31 30 31 29 29 28 33 40 62 31 26 28 35 34 34 41 37 46 36 37 35 41 56 56 52 50 53 52 58 51 52 51 52 50 48 47 43
25 26 27 30 32 45 39 41 33 34 31 35 38 31 26 28 28 28 28 28 35 38 40 41 39 35 34 46 45 46 37 46 48 52 52 51 53 53 52 51 45 42 42
26 37 40 42 44 42 36 47 50 46 44 34 30 33 33 36 39 39 35 37 37 38 42 40 38 32 40 44 44 39 37 41 43 43 48 47 48 49 46 46 41 40 40
43 39 39 44 48 52 40 37 36 45 43 37 40 46 38 36 42 38 38 43 45 50 54 49 44 42 41 42 39 36 53 52 48 54 49 49 51 54 43 40 42 42 43
48 36 46 43 48 43 45 44 44 40 34 35 40 37 37 38 36 36 45 43 47 47 54 71 79 72 66 60 75 78 75 72 53 64 48 49 48 45 41 41 42 39 40
Wind_Speed
7 6 5 6 6 3 3 8 9 4 6 8 9 11 11 12 11 9 8 9 10 8 3 2 4 3 3 1 2 3 1 2 1 2 2 5 6 7 7 7 7 7 8
7 6 5 9 6 4 6 8 6 5 5 7 9 10 9 9 10 11 12 12 12 11 9 8 9 7 9 7 5 5 5 4 2 4 2 3 5 6 5 8 6 7 9
8 7 6 10 8 3 6 6 7 5 7 8 9 8 9 10 10 10 10 10 10 10 11 11 11 9 8 7 6 5 5 4 4 3 3 2 2 2 5 6 6 8 7
9 8 8 8 7 4 7 7 6 5 6 8 8 8 9 11 9 8 8 9 10 10 9 9 9 8 7 7 6 6 5 5 4 5 5 4 3 3 3 3 4 5 5
8 8 8 9 8 5 8 6 5 5 8 6 8 8 10 10 8 6 6 6 8 8 8 9 9 12 15 11 5 5 5 5 4 5 3 2 2 2 3 2 3 3 5
7 7 8 9 8 6 7 6 5 6 5 8 8 9 9 7 12 13 9 4 4 5 6 7 9 12 12 13 14 16 10 3 5 4 3 4 2 2 2 3 3 2 2
5 7 8 11 7 7 8 6 5 6 5 6 9 8 8 7 13 14 16 6 6 8 9 7 9 9 6 7 10 13 16 14 12 7 7 5 4 2 3 3 1 4 3
5 5 7 9 8 7 9 6 5 6 5 6 8 8 7 7 14 15 15 7 9 11 11 7 7 9 9 6 9 9 9 9 8 6 6 5 4 4 4 4 5 5 4
4 3 3 5 7 6 9 7 4 5 5 5 6 7 7 7 11 11 10 8 8 8 8 11 9 8 11 11 8 7 6 6 6 8 7 5 6 8 6 4 4 5 3
7 6 8 4 7 6 9 7 5 4 4 7 8 8 10 6 12 11 8 5 7 6 7 7 12 8 10 12 4 5 5 3 4 4 2 3 4 5 10 6 6 3 3
8 9 9 9 5 6 6 5 5 5 6 7 8 7 8 9 9 12 14 5 2 4 6 6 5 9 9 9 11 6 4 5 2 2 2 2 3 6 4 5 6 6 5
8 8 8 8 7 6 9 6 4 7 8 6 6 7 5 6 10 11 12 12 10 7 7 5 3 4 7 9 6 5 6 6 4 5 4 4 5 4 4 3 4 5 4
8 7 7 8 8 7 8 6 6 7 6 5 4 4 3 3 3 8 11 11 11 7 5 6 5 3 6 3 1 5 7 5 3 4 4 3 4 1 2 2 3 2 3
8 8 7 8 8 8 6 5 5 4 5 4 4 4 2 1 1 2 4 5 6 5 5 4 3 4 5 1 2 1 4 4 4 3 3 2 1 3 3 3 1 4 3
9 8 8 7 8 6 7 5 5 4 3 4 3 3 1 1 2 4 6 3 0 2 4 2 3 5 5 4 3 3 3 2 3 3 4 3 3 2 2 2 3 4 1
8 7 7 7 6 6 7 7 12 9 9 9 6 2 2 4 6 7 6 6 7 9 3 6 3 1 2 3 2 3 4 1 5 4 3 4 3 4 4 4 2 3 2
8 8 7 7 7 7 7 7 6 6 9 8 7 8 9 7 6 6 7 9 7 5 5 6 2 3 3 3 3 4 6 4 2 3 3 1 3 1 2 3 2 3 2
8 10 7 7 7 8 7 8 8 8 7 5 3 4 6 4 3 4 6 7 4 4 6 5 3 3 3 3 3 4 4 2 3 1 3 3 2 3 3 3 3 3 4
9 6 4 4 5 4 4 5 6 7 8 7 6 4 4 3 2 3 3 4 6 7 5 3 3 1 2 0 3 3 1 1 1 2 3 4 3 2 4 2 1 1 2
7 10 7 5 6 6 5 6 6 4 6 7 8 7 7 5 5 5 6 6 7 6 4 1 1 4 3 2 3 2 1 3 4 3 4 4 4 1 4 4 4 1 4
6 5 4 5 5 5 5 5 3 3 4 3 7 6 13 7 7 8 8 8 7 3 2 3 3 4 0 4 4 4 3 3 4 3 3 3 3 3 3 3 3 4 4
6 6 6 7 4 2 3 2 3 1 1 4 8 7 11 5 5 6 2 2 2 3 1 1 2 3 4 3 1 3 4 3 4 6 5 4 3 3 3 4 4 4 5
5 3 3 4 4 4 2 4 4 3 5 3 3 8 6 6 5 6 5 5 2 1 3 3 1 3 5 3 3 3 4 4 5 4 2 2 2 3 3 4 5 6 4
4 9 7 5 4 4 4 3 4 4 4 8 5 9 7 3 5 4 4 2 3 3 3 4 5 7 4 3 3 4 5 6 5 4 4 1 3 5 5 6 6 6 5
6 8 9 7 3 3 3 4 4 6 4 1 4 4 8 3 6 5 6 3 3 5 6 8 7 5 8 10 9 9 0 5 5 2 2 3 5 6 8 7 8 7 6
4 5 3 4 3 5 6 3 3 4 2 3 3 3 3 4 8 4 1 7 5 3 4 3 6 5 10 16 19 15 9 8 9 10 6 5 5 6 7 9 11 8 9
Wind_Direction
162 167 155 124 95 73 49 75 71 20 21 21 37 30 36 27 24 25 37 42 47 45 64 206 267 255 196 181 311 284 61 64 161 117 90 61 50 63 54 51 47 51 49
136 141 136 100 89 73 68 69 89 61 54 39 55 45 40 44 43 39 38 30 32 40 41 48 45 40 49 38 49 62 67 52 57 108 82 72 66 59 64 68 48 48 55
144 158 181 118 107 80 82 85 77 48 57 38 63 61 58 52 48 53 51 51 53 47 39 37 30 42 49 48 44 42 56 54 53 96 110 93 125 133 82 66 60 58 52
159 172 121 119 115 104 96 84 86 63 65 59 61 62 63 53 51 61 59 58 59 59 56 51 46 38 42 64 63 59 60 63 53 64 52 61 80 94 93 89 68 49 59
158 153 135 130 125 133 97 85 79 63 79 60 59 52 61 63 37 33 77 82 86 82 69 68 64 63 59 48 57 46 61 73 74 78 75 74 51 50 55 73 85 76 53
161 154 141 133 133 125 117 106 99 81 68 77 68 67 66 58 19 21 13 78 88 105 114 120 105 80 64 66 66 58 50 101 105 111 130 108 108 112 125 116 135 189 109
171 175 151 134 146 137 128 125 117 103 104 90 87 76 76 65 20 15 8 58 47 53 43 43 74 52 77 85 50 45 38 38 59 61 69 52 80 73 129 158 149 86 109
177 70 134 141 159 149 127 114 138 121 95 87 93 93 88 55 27 10 349 74 65 49 27 54 68 56 25 45 84 70 56 45 36 60 54 51 53 27 68 79 110 118 129
135 137 141 134 160 159 130 132 143 127 125 107 96 102 96 68 32 15 360 93 78 74 56 31 36 38 2 1 117 117 118 108 80 87 99 101 77 54 22 181 174 192 165
42 48 24 4 201 152 142 140 141 147 130 93 82 67 49 79 27 13 1 129 129 123 113 85 45 24 13 10 61 79 66 61 120 155 187 221 205 75 37 42 1 338 117
36 33 23 7 44 89 113 126 139 134 99 97 99 78 62 30 37 20 12 61 357 132 118 87 51 11 19 31 46 41 44 336 302 279 199 208 129 76 60 21 13 48 19
57 55 36 34 37 50 79 58 90 117 113 105 96 84 52 44 25 28 34 39 21 66 82 89 90 22 52 39 62 16 349 336 291 257 82 58 45 59 75 60 54 58 60
77 69 57 49 52 42 66 69 70 77 88 87 94 92 46 48 48 46 40 42 48 72 70 78 82 336 314 102 292 298 311 277 286 60 66 76 114 188 173 190 120 100 47
92 78 68 63 57 45 49 51 75 80 95 105 97 97 110 85 72 190 111 90 79 85 118 153 207 249 222 116 319 220 30 4 13 27 45 40 103 46 42 350 166 198 154
102 99 90 84 82 75 59 44 67 49 77 106 95 102 106 156 99 61 40 12 333 136 238 173 213 229 205 194 119 39 73 328 43 15 13 11 30 34 102 356 339 322 360
124 121 117 112 112 110 103 86 50 57 60 71 70 108 114 90 96 59 23 6 33 30 294 273 191 351 27 45 77 152 150 158 30 4 23 14 12 40 1 348 328 323 341
118 143 141 145 136 134 124 118 113 66 63 62 66 55 56 91 59 38 12 349 299 339 258 286 65 73 45 42 8 28 77 63 27 308 352 20 0 156 268 276 306 289 292
156 178 155 157 158 157 157 142 147 148 128 114 49 90 72 73 49 34 358 324 257 229 250 275 95 84 43 35 20 13 33 142 203 37 347 305 316 339 318 323 314 43 14
176 176 141 98 89 105 125 120 119 123 121 128 141 194 160 176 215 253 296 278 297 285 219 131 133 97 135 309 81 80 56 352 348 11 344 304 297 350 318 279 30 150 170
73 80 109 143 170 152 125 109 113 137 161 164 177 144 160 175 212 210 209 232 268 290 352 344 140 152 141 140 149 135 277 239 215 220 239 263 262 225 280 312 327 283 216
128 158 252 159 124 107 97 86 64 112 122 106 105 138 164 194 240 211 201 207 225 265 316 10 354 5 183 176 185 179 212 268 291 261 223 249 256 233 259 298 288 268 266
144 189 197 103 113 111 62 141 189 149 208 177 144 161 163 210 253 296 301 221 281 206 167 51 304 318 345 360 33 177 220 244 266 267 237 215 239 275 258 236 252 261 275
182 154 100 132 93 110 216 308 16 334 312 345 72 149 181 210 217 235 245 250 210 164 197 148 173 260 259 246 203 201 258 246 243 259 332 347 319 285 258 246 245 260 257
166 94 91 77 63 336 48 28 318 355 341 307 315 165 198 217 240 236 242 232 242 243 239 205 209 231 240 256 248 224 217 220 232 251 258 292 310 300 278 274 254 260 272
56 54 49 28 325 271 315 338 7 356 310 290 44 20 276 4 339 0 332 297 314 19 34 357 322 247 243 223 224 245 259 183 224 250 240 198 247 272 284 279 283 291 290
135 92 89 62 26 355 324 312 264 264 309 5 291 274 23 295 264 290 56 43 341 39 9 18 40 308 26 358 12 2 356 243 202 211 216 221 243 257 267 270 260 257 257